User: anonymous   Login
Location: Dampvalley
(47.9094°N, 6.1967°E)
Time: 13:32:58
(UTC+00:00)
Language:

SL-08 R/B - Orbit

View from above orbital plane
View from above orbital plane
View from above satellite
View from above satellite

Ground track
Ground track

The orbit data is extracted from the following two-line orbital elements,

1 28381U 04028B   21128.87782719  .00000081  00000-0  64672-4 0  9997
2 28381  82.9592 358.2306 0031841   0.1766  10.3777 13.78271668844799
Epoch (UTC): 08 May 2021 21:04:04
Eccentricity: 0.0031841
inclination: 82.9592°
perigee height: 946 km
apogee height: 993 km
right ascension of ascending node: 358.2306°
argument of perigee: 0.1766°
revolutions per day: 13.78271668
mean anomaly at epoch: 10.3777°
orbit number at epoch: 84479

The dashed part of the orbit path shows where the satellite is in the earth's shadow,  

DLR